Location: Ferchesar
(52.6477°N, 12.4298°E)
Time: 01:34:15
(UTC+01:00)

Transit 2A Rocket - Pass Details

Date: 10 December 2021
Orbit: 584 x 918 km, 66.7° (Epoch: 21 January)

Event Time Altitude Azimuth Distance (km) Brightness Sun altitude
Rises 04:51:11 0° 157° (SSE) 3,364 8.6 -28.8°
Reaches altitude 10° 04:54:42 10° 134° (SE) 2,496 8.2 -28.3°
Maximum altitude 04:57:45 15° 102° (ESE) 2,222 8.2 -27.8°
Drops below altitude 10° 05:00:53 10° 70° (ENE) 2,583 8.6 -27.3°
Sets 05:04:37 0° 49° (NE) 3,557 9.1 -26.8°
